WGS SV-8

operational
NORAD ID: 41879 Int'l Des: 2016-075 Owner: AFSMC Country: US
HEOCIRCULARGSOGEO

关于 WGS SV-8

正在加载描述...

实时位置

正在加载3D地球...

即将过境

高度历史

Altitude vs Time

uPlot chart will show altitude changes over time

两行轨道根数

1 41879U 16075A 26062.56697436 -.00000217 00000-0 00000-0 0 9991
2 41879 0.0077 168.9537 0000190 261.1765 85.1057 1.00271983 33768
Epoch: Mar 3, 2026 • Age: 36 hours

当前状态

高度 35785.7 km
速度 3.07 km/s
星下点 -0.02°S, 149.82°E
发射日期 Dec 7, 2016
运行时间 9.2 years
类型 other

技术详情

分类 Payload
质量 5987.00 kg
干质量 3400.00 kg
总质量 5987.00 kg
长度 6.00 m
直径 3.00 m
跨度 40.90 m
形状 Box + 2 pan
制造商 BOES
平台类型 BSS-702HP
阶段状态 In Orbit
所有者/国家 AFSMC/US

大型星座

Loading constellations...